{"data":{"norad_id":59473,"epoch":"2026-09-21T07:38:35.080512Z","epoch_age_seconds":94443,"freshness":"FRESH","line1":"1 59473U 24068U   26264.31846158 -.00004318  00000+0 -14738-3 0  9997","line2":"2 59473  43.0006   9.5311 0001602 291.8389  68.2292 15.27597798138440","mean_motion":15.27597798,"eccentricity":0.0001602,"inclination_deg":43.0006,"raan_deg":9.5311,"arg_perigee_deg":291.8389,"mean_anomaly_deg":68.2292,"bstar":-0.00014738,"rev_number":13844,"period_min":94.265650414351,"perigee_km":481.89664946726,"apogee_km":484.09495641732,"semimajor_km":6861.1328029423,"source":"CELESTRAK","updated_at":"2026-09-22T09:00:48.950725Z"}}